[[{"header":{"parameterUnit":"m.s-1","parameterCategory":1,"la1":30.2991,"la2":30.254,"lo1":-89.0895,"lo2":-89.0444,"dy":0.0017,"dx":0.0017,"nx":28,"ny":28,"refTime":"2024-10-14T09:00:00:Z","depth":0,"parameterNumber":2,"parameterNumberName":"U-component_of_WINDS"},"data":[0,0,0,0,0,0,0,0,0,0,0,0,0,0,0,0,0,0,0,0,0,0,0,0,0,0,0,0,0,0,0,0,0,0,0,0,0,0,0,0,0,0,0,0,0,0,0,0,0,0,0,0,0,0,0,0,0,0,-3.8334,-3.8334,0,-3.8414,-3.8415,-3.8415,-3.831,-3.8306,-3.8303,-3.8299,-3.8382,-3.8388,-3.8394,0,0,0,0,0,0,0,0,0,0,0,0,0,-3.8089,-3.8094,-3.8333,-3.8334,-3.8335,-3.8414,-3.8415,-3.8416,-3.8311,-3.8306,-3.8302,-3.8297,-3.8381,-3.8387,-3.8394,0,0,0,0,0,0,0,0,0,0,0,0,0,-3.8185,-3.8096,-3.8333,-3.8292,-3.829,-3.8413,-3.8415,-3.8416,-3.8312,-3.8306,-3.83,-3.8295,-3.8378,-3.8387,-3.8395,-3.8563,0,0,-3.8422,-3.8425,0,0,0,0,0,0,0,0,-3.818,-3.8194,-3.8297,-3.8296,-3.8293,-3.8346,-3.8359,-3.8465,-3.8313,-3.8304,-3.8299,-3.8292,-3.8375,-3.8384,-3.8411,-3.8567,-3.8571,-3.8422,-3.8428,-3.8431,-3.8434,0,0,0,0,0,0,0,-3.8173,-3.819,-3.8365,-3.8299,-3.8296,-3.827,-3.8277,-3.8379,-3.837,-3.8304,-3.8296,-3.8307,-3.8373,-3.8403,-3.8412,-3.8572,-3.8422,-3.843,-3.8435,-3.8439,-3.8869,-3.8875,0,0,0,0,0,0,-3.8171,-3.8185,-3.8363,-3.8368,-3.8221,-3.8279,-3.8287,-3.8335,-3.8369,-3.8369,-3.8312,-3.8302,-3.8391,-3.8402,-3.8415,-3.8614,-3.8431,-3.8439,-3.8444,-3.8863,-3.887,-3.8877,0,0,0,0,0,0,-3.8167,-3.8188,-3.8359,-3.8274,-3.8294,-3.8289,-3.8343,-3.8339,-3.837,-3.8375,-3.8373,-3.8345,-3.8387,-3.8403,-3.8527,-3.8616,-3.8443,-3.8451,-3.8855,-3.8865,-3.8874,-3.9014,0,0,0,0,0,0,-3.816,-3.8187,-3.8251,-3.8277,-3.8299,-3.8471,-3.8349,-3.8345,-3.8385,-3.8373,-3.8405,-3.8405,-3.8384,-3.8515,-3.8536,-3.8625,-3.8458,-3.8847,-3.886,-3.8871,-3.9002,-3.9027,-3.9049,0,0,0,0,0,-3.8152,-3.8288,-3.8255,-3.8277,-3.8379,-3.8476,-3.8489,-3.8461,-3.8392,-3.8457,-3.846,-3.8404,-3.8602,-3.8528,-3.8551,-3.8644,-3.8842,-3.8856,-3.887,-3.8991,-3.9022,-3.9049,0,0,0,0,0,0,-3.8274,-3.8291,-3.8254,-3.8403,-3.8439,-3.8458,-3.8539,-3.8495,-3.8551,-3.8538,-3.85,-3.8509,-3.8641,-3.8654,-3.8572,-3.8808,-3.871,-3.873,-3.8795,-3.8825,-3.8848,-3.8843,-3.8465,0,0,0,0,0,-3.8318,-3.8395,-3.8405,-3.8535,-3.8555,-3.8544,-3.8585,-3.856,-3.8596,-3.8611,-3.8623,-3.866,-3.873,-3.8778,-3.8843,-3.9002,-3.9008,-3.9077,-3.9101,-3.912,-3.9138,-3.9224,-3.9255,-3.8923,-3.8923,-3.8923,0,0,-3.841,-3.8429,-3.848,-3.856,-3.8585,-3.8666,-3.8558,-3.8648,-3.8708,-3.8625,-3.8743,-3.8753,-3.8792,-3.8935,-3.8998,-3.895,-3.923,-3.9138,-3.9154,-3.9161,-3.9241,-3.9273,-3.9301,-3.8933,-3.8931,-3.8929,0,0,-3.862,-3.8642,-3.8753,-3.8779,-3.8818,-3.8809,-3.8836,-3.8862,-3.8865,-3.8983,-3.8922,-3.8992,-3.9114,-3.9144,-3.9176,-3.9395,-3.9346,-3.9417,-3.9542,-3.9626,-3.9652,-3.9675,-3.9755,-3.9783,-3.9434,-3.9434,-3.9435,0,-3.8731,-3.885,-3.8815,-3.891,-3.8947,-3.8874,-3.8986,-3.9014,-3.9072,-3.91,-3.9044,-3.9195,-3.9216,-3.9365,-3.9418,-3.9445,-3.9475,-3.9415,-3.9651,-3.9674,-3.9695,-3.977,-3.98,-3.9443,-3.9442,-3.9441,-3.944,0,-3.8984,-3.9068,-3.9153,-3.9211,-3.9257,-3.936,-3.9341,-3.9392,-3.9362,-3.9359,-3.948,-3.9501,-3.957,-3.9602,-3.9575,-3.9748,-3.9716,-3.9657,-3.9558,-3.9735,-3.9806,-3.9834,-3.9455,-3.9452,-3.9449,-3.9447,0,0,-3.9277,-3.9312,-3.9344,-3.9369,-3.9406,-3.947,-3.9569,-3.9635,-3.968,-3.9721,-3.9804,-3.9908,-3.9852,-3.9888,-3.9862,-3.9936,-4.0109,-3.9866,-3.9867,-3.9912,-4.0302,-4.0349,-4.0383,-4.0076,-4.0081,-4.0085,-4.0299,0,-3.9488,-3.966,-3.9631,-3.9798,-3.9875,-3.9805,-3.9891,-3.9923,-3.9922,-3.9987,-3.9986,-4.0061,-3.9981,-4.0002,-4.0071,-4.0074,-4.0187,-4.0057,-4.0154,-4.0157,-4.0149,-4.0419,-4.0469,-4.0671,-4.0326,-4.0331,-4.0334,0,-3.9759,-3.981,-3.9985,-4.0008,-4.0039,-4.0118,-4.0175,-4.0238,-4.0272,-4.0266,-4.0305,-4.0266,-4.0364,-4.0262,-4.0398,-4.031,-4.0347,-4.0354,-4.0361,-4.0371,-4.0259,-4.0439,-4.0734,-4.0765,-4.0377,-4.0374,-4.0371,0,-3.9957,-4.0069,-4.0188,-4.0212,-4.0241,-4.0298,-4.0313,-4.0341,-4.0383,-4.0433,-4.0459,-4.052,-4.0554,-4.0602,-4.058,-4.0508,-4.072,-4.0617,-4.0719,-4.072,-4.077,-4.0768,-4.1077,-4.079,-4.0789,-4.0789,-4.0788,0,-4.0197,-4.0308,-4.0278,-4.0352,-4.0472,-4.0436,-4.0557,-4.0564,-4.0589,-4.0662,-4.0605,-4.0675,-4.064,-4.0708,-4.0691,-4.0806,-4.0822,-4.082,-4.0815,-4.0827,-4.0828,-4.0853,-4.0839,-4.0797,-4.0795,-4.0794,-4.0792,0,-4.0441,-4.0425,-4.055,-4.0568,-4.0574,-4.0663,-4.0678,-4.0747,-4.074,-4.0834,-4.0854,-4.0844,-4.0921,-4.0902,-4.0986,-4.0974,-4.112,-4.1096,-4.111,-4.1105,-4.1209,-4.12,-4.1548,-4.1592,-4.1274,-4.1277,-4.128,0,-4.0597,-4.068,-4.0706,-4.0751,-4.077,-4.0843,-4.0885,-4.0852,-4.0897,-4.0941,-4.1005,-4.1076,-4.1131,-4.1257,-4.1257,-4.1321,-4.1299,-4.1416,-4.1309,-4.1318,-4.1303,-4.13,-4.1308,-4.1439,-4.1443,-4.1446,-4.1448,0,-4.0876,-4.0864,-4.0926,-4.0986,-4.1037,-4.1082,-4.1122,-4.1162,-4.1131,-4.1186,-4.1263,-4.1306,-4.139,-4.1462,-4.152,-4.1535,-4.1488,-4.1481,-4.1509,-4.1524,-4.1529,-4.1529,-4.117,-4.1474,-4.1472,-4.147,-4.1468,-4.1467,-4.1082,-4.1153,-4.1182,-4.1253,-4.1279,-4.1317,-4.1382,-4.1383,-4.1447,-4.1514,-4.1489,-4.1578,-4.1608,-4.1681,-4.1703,-4.1772,-4.1728,-4.1767,-4.1778,-4.1789,-4.1802,-4.1515,-4.1782,-4.1781,-4.1781,-4.178,-4.1779,0,-4.136,-4.1375,-4.144,-4.1497,-4.1553,-4.1501,-4.1542,-4.1592,-4.1671,-4.1703,-4.1758,-4.1847,-4.1915,-4.192,-4.1985,-4.2039,-4.2019,-4.2057,-4.2054,-4.2059,-4.1837,-4.1808,-4.2073,-4.2072,-4.2072,-4.2072,-4.2072,-4.2072,-4.1511,-4.1628,-4.1619,-4.1748,-4.1761,-4.1848,-4.1876,-4.1911,-4.1936,-4.2037,-4.2094,-4.2096,-4.2117,-4.2182,-4.2243,-4.2243,-4.227,-4.2317,-4.2309,-4.2103,-4.2074,-4.2046,-4.2019,-4.2323,-4.2323,-4.2525,-4.2527,-4.2528]},{"header":{"parameterUnit":"m.s-1","parameterCategory":1,"la1":30.2991,"la2":30.254,"lo1":-89.0895,"lo2":-89.0444,"dy":0.0017,"dx":0.0017,"nx":28,"ny":28,"refTime":"2024-10-14T09:00:00:Z","depth":0,"parameterNumber":3,"parameterNumberName":"V-component_of_WINDS"},"data":[0,0,0,0,0,0,0,0,0,0,0,0,0,0,0,0,0,0,0,0,0,0,0,0,0,0,0,0,0,0,0,0,0,0,0,0,0,0,0,0,0,0,0,0,0,0,0,0,0,0,0,0,0,0,0,0,0,0,-8.844,-8.8441,0,-8.8523,-8.8524,-8.8524,-8.8396,-8.8391,-8.8387,-8.8383,-8.8461,-8.8467,-8.8473,0,0,0,0,0,0,0,0,0,0,0,0,0,-8.8163,-8.8169,-8.844,-8.8441,-8.8442,-8.8522,-8.8524,-8.8525,-8.8397,-8.8391,-8.8386,-8.8381,-8.8459,-8.8466,-8.8474,0,0,0,0,0,0,0,0,0,0,0,0,0,-8.8268,-8.8171,-8.844,-8.8388,-8.8384,-8.8522,-8.8524,-8.8525,-8.8398,-8.8391,-8.8384,-8.8378,-8.8456,-8.8465,-8.8475,-8.8665,0,0,-8.8503,-8.8507,0,0,0,0,0,0,0,0,-8.8262,-8.8279,-8.8394,-8.8392,-8.8388,-8.8442,-8.8454,-8.8572,-8.8399,-8.8392,-8.8383,-8.8375,-8.846,-8.8468,-8.8498,-8.8669,-8.8672,-8.8504,-8.851,-8.8514,-8.8516,0,0,0,0,0,0,0,-8.8255,-8.8274,-8.8472,-8.8396,-8.8392,-8.8358,-8.8366,-8.8476,-8.8462,-8.8392,-8.8383,-8.8395,-8.8456,-8.8489,-8.8499,-8.8673,-8.8504,-8.8512,-8.8518,-8.8521,-8.9003,-8.9009,0,0,0,0,0,0,-8.8255,-8.8269,-8.847,-8.8475,-8.8308,-8.8368,-8.8377,-8.8431,-8.8461,-8.8459,-8.8401,-8.8389,-8.8477,-8.8488,-8.8501,-8.8725,-8.8513,-8.8522,-8.8528,-8.8995,-8.9004,-8.9012,0,0,0,0,0,0,-8.825,-8.8275,-8.8466,-8.837,-8.8391,-8.838,-8.8442,-8.8436,-8.8469,-8.8467,-8.8463,-8.8438,-8.8472,-8.8488,-8.8625,-8.8726,-8.8526,-8.8535,-8.8987,-8.8998,-8.9008,-8.9176,0,0,0,0,0,0,-8.8243,-8.8273,-8.8348,-8.8372,-8.8397,-8.8592,-8.8449,-8.8443,-8.8487,-8.8472,-8.8501,-8.8499,-8.8468,-8.8612,-8.8635,-8.8735,-8.8542,-8.8978,-8.8992,-8.9005,-8.9161,-8.9191,-8.9217,0,0,0,0,0,-8.8233,-8.839,-8.8352,-8.8377,-8.849,-8.8598,-8.8612,-8.8575,-8.8495,-8.8568,-8.8567,-8.8498,-8.8712,-8.8627,-8.8652,-8.8757,-8.8971,-8.8988,-8.9004,-8.9149,-8.9185,-8.9216,0,0,0,0,0,0,-8.8376,-8.8393,-8.835,-8.8521,-8.856,-8.8576,-8.8668,-8.8615,-8.8675,-8.8659,-8.8608,-8.8616,-8.8763,-8.8773,-8.8679,-8.8942,-8.8828,-8.885,-8.893,-8.8965,-8.8992,-8.8986,-8.855,0,0,0,0,0,-8.8427,-8.8516,-8.8525,-8.8674,-8.8696,-8.8679,-8.8725,-8.8693,-8.873,-8.8745,-8.8753,-8.879,-8.8864,-8.8915,-8.8984,-8.9162,-8.9165,-8.9246,-8.9274,-8.9297,-8.9316,-8.9409,-8.9445,-8.9065,-8.9065,-8.9065,0,0,-8.8534,-8.8554,-8.8613,-8.8704,-8.873,-8.882,-8.8694,-8.8795,-8.8861,-8.8759,-8.889,-8.8898,-8.8934,-8.9093,-8.9163,-8.9106,-8.9421,-8.9317,-8.9335,-8.9342,-8.9429,-8.9465,-8.9497,-8.9076,-8.9074,-8.9072,0,0,-8.8775,-8.88,-8.8927,-8.8956,-8.8998,-8.8986,-8.9016,-8.9041,-8.9043,-8.9174,-8.9099,-8.9176,-8.9307,-8.9336,-8.9368,-8.962,-8.9558,-8.9643,-8.9787,-8.9879,-8.9909,-8.9935,-9.0024,-9.0056,-8.9662,-8.9663,-8.9663,0,-8.8902,-8.9038,-8.8998,-8.9106,-8.9147,-8.9061,-8.9188,-8.9217,-8.9278,-8.9307,-8.9243,-8.9405,-8.9424,-8.9588,-8.9649,-8.9678,-8.971,-8.964,-8.9908,-8.9934,-8.9958,-9.0042,-9.0076,-8.9673,-8.9672,-8.9671,-8.967,0,-8.9191,-8.9287,-8.9384,-8.9448,-8.95,-8.9616,-8.9591,-8.9648,-8.9612,-8.9606,-8.9738,-8.9758,-8.9829,-8.9866,-8.9831,-9.0024,-8.9987,-8.9917,-8.9801,-9.0005,-9.0083,-9.0115,-8.9687,-8.9684,-8.9681,-8.9678,0,0,-8.9524,-8.9565,-8.9602,-8.9629,-8.9669,-8.974,-8.9852,-8.9923,-8.9972,-9.0017,-9.0108,-9.0221,-9.0155,-9.0192,-9.0159,-9.024,-9.0436,-9.0158,-9.0158,-9.0209,-9.0649,-9.0702,-9.074,-9.0396,-9.0402,-9.0407,-9.0646,0,-8.9764,-8.9959,-8.9926,-9.0114,-9.0201,-9.012,-9.0217,-9.025,-9.0247,-9.0318,-9.0312,-9.0393,-9.0302,-9.0323,-9.0399,-9.0397,-9.0524,-9.0379,-9.0478,-9.0482,-9.0471,-9.0781,-9.0837,-9.1061,-9.0676,-9.0681,-9.0685,0,-9.007,-9.0128,-9.0326,-9.0352,-9.0387,-9.0475,-9.0537,-9.0606,-9.0642,-9.0633,-9.0675,-9.0626,-9.0734,-9.0618,-9.0765,-9.0667,-9.0705,-9.071,-9.0718,-9.0725,-9.0595,-9.0795,-9.1132,-9.1166,-9.0732,-9.0729,-9.0725,0,-9.0292,-9.042,-9.0555,-9.0581,-9.0614,-9.0677,-9.0694,-9.0723,-9.0767,-9.0821,-9.0849,-9.0914,-9.095,-9.1,-9.097,-9.0888,-9.1122,-9.1003,-9.1116,-9.1117,-9.1168,-9.1165,-9.1515,-9.1195,-9.1194,-9.1194,-9.1193,0,-9.0563,-9.0686,-9.0655,-9.0738,-9.0873,-9.0833,-9.0967,-9.0973,-9.1,-9.108,-9.1013,-9.109,-9.1046,-9.1118,-9.1095,-9.1219,-9.1236,-9.123,-9.1223,-9.1236,-9.1237,-9.126,-9.1243,-9.1202,-9.12,-9.1199,-9.1197,0,-9.0834,-9.0818,-9.0959,-9.0979,-9.0987,-9.1086,-9.1102,-9.1178,-9.1169,-9.1272,-9.1294,-9.128,-9.1362,-9.1337,-9.1424,-9.1408,-9.1566,-9.1539,-9.1555,-9.1548,-9.1662,-9.1652,-9.2039,-9.2087,-9.1736,-9.174,-9.1742,0,-9.1007,-9.1101,-9.1132,-9.1182,-9.1204,-9.1286,-9.1332,-9.1295,-9.1345,-9.1392,-9.1462,-9.1538,-9.1597,-9.1731,-9.1727,-9.1793,-9.1766,-9.1897,-9.1775,-9.1786,-9.1767,-9.1761,-9.177,-9.1921,-9.1925,-9.1928,-9.1931,0,-9.1317,-9.1304,-9.1374,-9.1443,-9.15,-9.1551,-9.1595,-9.1639,-9.1605,-9.1664,-9.1748,-9.1794,-9.1884,-9.196,-9.202,-9.2033,-9.1976,-9.197,-9.1999,-9.2014,-9.2019,-9.2017,-9.1621,-9.1961,-9.1958,-9.1956,-9.1954,-9.1953,-9.1543,-9.1623,-9.1657,-9.1737,-9.1767,-9.181,-9.1882,-9.1884,-9.1954,-9.2026,-9.1999,-9.2095,-9.2125,-9.22,-9.2222,-9.2295,-9.2244,-9.2287,-9.2298,-9.2309,-9.2323,-9.2009,-9.2305,-9.2304,-9.2304,-9.2303,-9.2302,0,-9.1848,-9.1867,-9.1941,-9.2006,-9.2069,-9.2012,-9.2058,-9.2113,-9.22,-9.2234,-9.2294,-9.239,-9.2463,-9.2465,-9.2532,-9.259,-9.2566,-9.2609,-9.2604,-9.2608,-9.2365,-9.2332,-9.2628,-9.2628,-9.2627,-9.2627,-9.2627,-9.2627,-9.2015,-9.2146,-9.2137,-9.2281,-9.2297,-9.2393,-9.2424,-9.2462,-9.249,-9.26,-9.2661,-9.2663,-9.2684,-9.2753,-9.2816,-9.2814,-9.2842,-9.2895,-9.2884,-9.2657,-9.2625,-9.2594,-9.2563,-9.2902,-9.2902,-9.312,-9.3122,-9.3124]}]]